Regional Weather Roundup
Issued by NWS Midland/Odessa, TX

Skip options and go directly to product.
Home | Oldest Version | Previous Version | Current Version | All | Graphics & Text | Save Text | Print | Product List | Glossary On

Skip product version selection by date and time.   
837
ASUS44 KMAF 241810
RWRMAF
MIDLAND AREA WEATHER ROUNDUP
NATIONAL WEATHER SERVICE MIDLAND TX
100 PM CDT FRI OCT 24 2014

...IN SOUTHWEST TEXAS AND SOUTHEAST NEW MEXICO...

CITY           SKY/WX    TMP DP  RH WIND       PRES   REMARKS
ALPINE         SUNNY     77  46  33 CALM      30.33F
ANDREWS        FAIR      82  55  39 S9        30.20F
ARTESIA        NOT AVBL
BIG SPRING     SUNNY     79  61  53 S7        30.21F
CARLSBAD       SUNNY     73  60  63 SE6       30.20F
DRYDEN           N/A     77  64  64 S7        30.18F
FORT STOCKTON  SUNNY     82  55  39 CALM      30.20F
GUAD PASS      SUNNY     73  51  46 SW17      30.34F
HOBBS          SUNNY     77  54  44 S8        30.23F
MARFA          SUNNY     73  48  40 SE3       30.33F
MIDLAND AIRPK  SUNNY     83  54  37 S7        30.19F
MIDLAND INTL   SUNNY     83  53  35 S9        30.18F
ODESSA         SUNNY     81  55  40 SW10      30.20F
PECOS          SUNNY     76  58  53 CALM      30.19F
PRESIDIO       FAIR      77  57  50 SE5       30.22F
SEMINOLE       SUNNY     79  56  45 SW12      30.21F
SNYDER         SUNNY     71  63  77 SW9       30.19F
WINK           SUNNY     77  55  46 SW7       30.18F
$$
...OTHER STATIONS IN TEXAS...

CITY           SKY/WX    TMP DP  RH WIND       PRES   REMARKS
ABILENE        SUNNY     81  61  50 S13       30.16F
AMARILLO       SUNNY     80  46  30 SW9       30.16F
AUSTIN         MOSUNNY   80  60  50 CALM      30.16F
BROWNSVILLE    MOSUNNY   85  64  49 N8        30.12F
CORPUS CHRISTI SUNNY     81  62  52 VRB6      30.14F
DALLAS FTW     MOSUNNY   78  57  48 S12       30.14F
DEL RIO        SUNNY     78  63  59 VRB6      30.16F
EL PASO        SUNNY     74  52  46 VRB3      30.26F
HOUSTON INT    SUNNY     75  52  44 N5        30.15F
LUBBOCK        SUNNY     80  58  46 SW14      30.18F
SAN ANGELO     SUNNY     83  58  42 SW10      30.17F
SAN ANTONIO    SUNNY     82  58  43 VRB3      30.17F
WACO           SUNNY     78  57  48 S10       30.16F
WICHITA FALLS  NOT AVBL
$$
...OTHER LOCATIONS IN NEW MEXICO...

CITY           SKY/WX    TMP DP  RH WIND       PRES   REMARKS
ALAMAGORDO     NOT AVBL
ALBUQUERQUE    SUNNY     67  33  28 CALM      30.35F
CANNON AFB     SUNNY     74  41  29 W12       30.22S
CLOVIS         SUNNY     75  43  31 W8        30.23F
HOLLOMAN AFB   SUNNY     72  50  45 S6        30.26F
ROSWELL        SUNNY     74  53  48 VRB3      30.21F
RUIDOSO        SUNNY     68  41  37 NW7       30.41S
SANTA FE       SUNNY     68  31  25 N10       30.36F
TRUTH OR CONSE SUNNY     72  46  39 VRB3      30.30F
TUCUMCARI      SUNNY     76  38  25 CALM      30.18F
$$

USA.gov is the U.S. government's official web portal to all federal, state and local government web resources and services.